Saipan, MP

4:17 AM ChST on October 21, 2017 (GMT +1000)
Saipan International

Weather History for PGSN - July, 2013

Change the Weather History Date:

Friday, July 5, 2013

  Actual Average Record
Temperature  
Mean Temperature 80 °F -  
Max Temperature 84 °F 85 °F 91 °F (2017)
Min Temperature 75 °F 76 °F 75 °F (2013)
Cooling Degree Days 14    
Growing Degree Days 30 (Base 50)    
Moisture  
Dew Point 75 °F    
Average Humidity 85    
Maximum Humidity 100    
Minimum Humidity 74    
Precipitation  
Precipitation 0.00 in - - ()
Sea Level Pressure  
Sea Level Pressure 29.91 in    
Wind  
Wind Speed 8 mph (ENE)    
Max Wind Speed 14 mph    
Max Gust Speed 23 mph    
Visibility 10 miles    
Events      
Averages and records for this station are not official NWS values.
T = Trace of Precipitation, MM = Missing Value Source: NWS Daily Summary

Daily Weather History Graph

Daily Weather History Graph

Search for Another Location

Airport or City:

Trip Planner

Search our weather history database for the weather conditions in past years. The results will help you decide how hot, cold, wet, or windy it might be!

Date:

Astronomy

Jul. 05, 2013 Rise Set
Actual Time 5:51 AM ChST 6:51 PM ChST
Civil Twilight 5:28 AM ChST 7:15 PM ChST
Nautical Twilight 5:00 AM ChST 7:42 PM ChST
Astronomical Twilight 4:31 AM ChST 8:11 PM ChST
Moon 3:12 AM ChST (7/5) 4:21 PM ChST (7/5)
Length of Visible Light 13h 46m
Length of Day
12h 59m
Waning Crescent, 9% of the Moon is Illuminated
Jul 5
Waning Crescent
Jul 8
New
Jul 16
First Quarter
Jul 23
Full
Jul 30
Last Quarter

Hourly Weather History & Observations

Time (ChST) Temp. Heat Index Dew Point Humidity Pressure Visibility Wind Dir Wind Speed Gust Speed Precip Events Conditions
12:54 AM 77.0 °F - 73.9 °F 90% 29.93 in 10.0 mi NNW 4.6 mph - N/A   Partly Cloudy
1:54 AM 78.1 °F - 73.9 °F 87% 29.91 in 10.0 mi NE 6.9 mph - N/A   Partly Cloudy
2:54 AM 77.0 °F - 73.9 °F 90% 29.91 in 10.0 mi NE 6.9 mph - N/A   Clear
3:54 AM 75.9 °F - 75.0 °F 97% 29.90 in 10.0 mi NE 3.5 mph - 0.00 in   Scattered Clouds
4:54 AM 75.9 °F - 75.9 °F 100% 29.90 in 10.0 mi NNE 6.9 mph - N/A   Mostly Cloudy
5:54 AM 75.9 °F - 73.9 °F 94% 29.91 in 10.0 mi NNE 8.1 mph - N/A   Partly Cloudy
6:54 AM 75.9 °F - 75.9 °F 100% 29.93 in 10.0 mi NE 6.9 mph - 0.00 in   Partly Cloudy
7:54 AM 79.0 °F - 75.0 °F 88% 29.93 in 10.0 mi NE 6.9 mph - N/A   Partly Cloudy
8:54 AM 82.0 °F 88.6 °F 75.0 °F 79% 29.94 in 10.0 mi ENE 11.5 mph - N/A   Clear
9:54 AM 82.9 °F 91.8 °F 77.0 °F 82% 29.94 in 10.0 mi ENE 10.4 mph - N/A   Partly Cloudy
10:54 AM 84.0 °F 93.7 °F 77.0 °F 79% 29.94 in 10.0 mi ENE 12.7 mph - N/A   Partly Cloudy
11:54 AM 84.9 °F 95.3 °F 77.0 °F 77% 29.93 in 10.0 mi ENE 12.7 mph - N/A   Scattered Clouds
12:11 PM 84.2 °F 94.1 °F 77.0 °F 79% 29.86 in 10.0 mi ENE 13.8 mph 23.0 mph N/A   Mostly Cloudy
12:31 PM 84.2 °F 92.3 °F 75.2 °F 74% 29.86 in 10.0 mi East 10.4 mph - N/A   Scattered Clouds
12:54 PM 84.0 °F 92.6 °F 75.9 °F 76% 29.91 in 10.0 mi East 12.7 mph - N/A   Clear
1:54 PM 84.0 °F 92.6 °F 75.9 °F 76% 29.90 in 10.0 mi ENE 10.4 mph - N/A   Partly Cloudy
2:54 PM 84.0 °F 92.6 °F 75.9 °F 76% 29.88 in 10.0 mi ENE 9.2 mph - N/A   Partly Cloudy
3:54 PM 82.9 °F 90.8 °F 75.9 °F 79% 29.88 in 10.0 mi ENE 10.4 mph - N/A   Partly Cloudy
4:54 PM 82.0 °F 89.4 °F 75.9 °F 82% 29.89 in 10.0 mi ENE 10.4 mph - N/A   Scattered Clouds
5:54 PM 81.0 °F 86.7 °F 75.0 °F 82% 29.89 in 10.0 mi ENE 10.4 mph - N/A   Clear
6:54 PM 79.0 °F - 73.9 °F 84% 29.89 in 10.0 mi ENE 8.1 mph - N/A   Clear
7:54 PM 79.0 °F - 75.0 °F 88% 29.90 in 10.0 mi East 9.2 mph - N/A   Partly Cloudy
8:54 PM 79.0 °F - 75.0 °F 88% 29.91 in 10.0 mi East 9.2 mph - N/A   Clear
9:54 PM 79.0 °F - 75.0 °F 88% 29.93 in 10.0 mi East 8.1 mph - N/A   Partly Cloudy
10:54 PM 79.0 °F - 75.0 °F 88% 29.93 in 10.0 mi East 10.4 mph - N/A   Partly Cloudy
11:54 PM 79.0 °F - 75.0 °F 88% 29.93 in 10.0 mi East 8.1 mph - N/A   Mostly Cloudy